User: anonymous   Login
Location: Stoke Bliss
(52.2667°N, 2.5167°W)
Time: 19:42:28
(UTC+00:00)
Language:

Meteor 1-14 Rocket - Orbit

View from above orbital plane
View from above orbital plane
View from above satellite
View from above satellite

Ground track
Ground track

The orbit data is extracted from the following two-line orbital elements,

1 06393U 73015B   21136.72039392 -.00000001  00000-0 -81727-5 0  9998
2 06393  81.2576  10.3995 0057787 217.6339 142.0780 14.05034546467465
Epoch (UTC): 16 May 2021 17:17:22
Eccentricity: 0.0057787
inclination: 81.2576°
perigee height: 834 km
apogee height: 918 km
right ascension of ascending node: 10.3995°
argument of perigee: 217.6339°
revolutions per day: 14.05034546
mean anomaly at epoch: 142.0780°
orbit number at epoch: 46746

The dashed part of the orbit path shows where the satellite is in the earth's shadow,  

DLR